Tracking 20232 objects as of 18-Jan-2020
HD Live streaming from Space Station
objects crossing your sky now

IRIDIUM 82

Track IRIDIUM 82 now!
10-day predictions
IRIDIUM 82 is classified as:


NORAD ID: 25467
Int'l Code: 1998-051A
Perigee: 479.6 km
Apogee: 726.4 km
Inclination: 86.4 °
Period: 96.6 minutes
Semi major axis: 6973 km
RCS: 4.1187 m2 (large)
Launch date: September 8, 1998
Source: United States (US)
Launch site: AIR FORCE WESTERN TEST RANGE (AFWTR)
aabbcc
Your satellite tracking list
Your tracking list is empty




NASA's NSSDC Master Catalog

Two Line Element Set (TLE):
1 25467U 98051A   20017.84425348  .00000458  00000-0  32043-4 0  9998
2 25467  86.4015 309.1575 0176976 261.1925  96.9227 14.90664872127509
Source of the keplerian elements: AFSPC